Tracking 29781 objects as of 15-Oct-2024
HD Live streaming from Space Station
objects crossing your sky now

ASIASAT 2 PKM

Track ASIASAT 2 PKM now!
10-day predictions


NORAD ID: 23725
Int'l Code: 1995-064C
Perigee: 296.7 km
Apogee: 16,954.2 km
Inclination: 25.7 °
Period: 304.6 minutes
Semi major axis: 14996 km
RCS: 4.944 m2 (large)
Launch date: November 28, 1995
Source: People's Republic of China (PRC)
Launch site: Xichang Space Center, China (XSC)

Note: This is a ROCKET BODY
Your satellite tracking list
Your tracking list is empty




NASA's NSSDC Master Catalog

Two Line Element Set (TLE):
1 23725U 95064C   24287.33262036  .00010604  00000-0  18482-2 0  9997
2 23725  25.7300 124.2824 5553829 133.6512 288.4994  4.72737272418322
Source of the keplerian elements: AFSPC